Flag for Northern Mariana Islands Weather past 2 weeks in Saipan, Northern Mariana Islands

Now
77 °F

Rain. Broken clouds.


Feels Like: 78 °F
Forecast: 76 / 82 °F
Wind: 6 mph from Southeast

Location: Saipan International Airport

Current Time: Sep 1, 2015 at 12:20:13 PM

Latest Report: Sep 1, 2015 at 11:54 AM


Visibility: 7 mi

Pressure: 29.95 "Hg

Humidity: 96%

Dew point: 76 °F

Location of SaipanLocation

Historic Weather in Saipan — Graph

°F

Saipan temperature yesterday

Maximum temperature yesterday: 87 °F (at 12:54 PM)
Minimum temperature yesterday: 80 °F (at 12:54 AM)
Average temperature yesterday: 83 °F

Past Weeks' High & Low Weather Summary

 TemperatureHumidityPressure
High87 °F (Aug 24, 12:54 PM)100% (Aug 17, 8:15 PM)29.97 "Hg (Aug 17, 8:15 PM)
Low75 °F (Aug 21, 1:07 AM)70% (Aug 27, 2:54 PM)29.67 "Hg (Aug 20, 4:21 PM)
Average82 °F88%29.85 "Hg
* Reported Aug 17 10:54 AM — Sep 1 10:54 AM, Saipan, Weather by CustomWeather, © 2015

Note: Actual official high and low records may vary slightly from our data, if they occured in-between our weather recording intervals... More about our weather records

Advertising

Saipan weather history for previous 24 hours

 ConditionsComfort  
Time TempWeatherWind HumidityBarometerVisibility
10:54 AM
Tue, Sep 1
84 °FScattered clouds.10 mph83%29.94 "Hg10 mi
9:54 AM84 °FBroken clouds.9 mph83%29.95 "Hg10 mi
8:54 AM85 °FScattered clouds.8 mph83%29.95 "Hg10 mi
7:54 AM83 °FScattered clouds.10 mph85%29.93 "Hg10 mi
6:54 AM82 °FPassing clouds.9 mph88%29.91 "Hg10 mi
5:54 AM80 °FPassing clouds.8 mph90%29.90 "Hg10 mi
4:54 AM80 °FClear.8 mph90%29.90 "Hg10 mi
3:54 AM80 °FPassing clouds.9 mph90%29.89 "Hg10 mi
3:30 AM81 °FPartly cloudy.7 mph94%29.83 "Hg10 mi
2:54 AM80 °FPassing clouds.8 mph94%29.89 "Hg10 mi
2:30 AM81 °FPassing clouds.3 mph94%29.84 "Hg10 mi
1:54 AM80 °FPartly cloudy.9 mph94%29.91 "Hg10 mi
1:02 AM79 °FPartly cloudy.No wind94%29.86 "Hg10 mi
12:54 AM79 °FHeavy rain. Fog.10 mph94%29.92 "Hg2 mi
11:54 PM
Mon, Aug 31
81 °FClear.10 mph88%29.93 "Hg10 mi
10:54 PM81 °FPassing clouds.8 mph91%29.94 "Hg10 mi
9:54 PM81 °FPassing clouds.6 mph91%29.95 "Hg10 mi
8:54 PM81 °FPassing clouds.7 mph91%29.93 "Hg10 mi
7:54 PM81 °FClear.5 mph91%29.91 "Hg10 mi
6:54 PM81 °FPassing clouds.No wind94%29.91 "Hg10 mi
5:54 PM83 °FScattered clouds.7 mph82%29.90 "Hg10 mi
4:54 PM84 °FScattered clouds.9 mph83%29.89 "Hg10 mi
3:54 PM86 °FScattered clouds.9 mph77%29.88 "Hg10 mi
2:54 PM86 °FScattered clouds.10 mph77%29.87 "Hg10 mi
1:54 PM86 °FScattered clouds.9 mph80%29.88 "Hg10 mi
12:54 PM87 °FScattered clouds.13 mph80%29.89 "Hg10 mi
Weather by CustomWeather, © 2015

See weather overviewHow to use our weather pages